User: anonymous   Login
Location: Unspecified
(0.0000°N, 0.0000°E)
Time: 15:25:49
(UTC+01:00)
Language:

YAOGAN 3 - Orbit

View from above orbital plane
View from above orbital plane
View from above satellite
View from above satellite

Ground track
Ground track

The orbit data is extracted from the following two-line orbital elements,

1 32289U 07055A   14352.15561592  .00002083  00000-0  26885-3 0  8747
2 32289 097.9537 342.7921 0001418 065.6628 294.4735 14.82067458383778
Epoch (UTC): 18 December 2014 03:44:05
Eccentricity: 0.0001418
inclination: 97.9537°
perigee height: 622 km
apogee height: 624 km
right ascension of ascending node: 342.7921°
argument of perigee: 65.6628°
revolutions per day: 14.82067458
mean anomaly at epoch: 294.4735°
orbit number at epoch: 38377

The dashed part of the orbit path shows where the satellite is in the earth's shadow,  

DLR